Patuxent River, MD

1:56 AM EDT on March 23, 2017 (GMT -0400)
Patuxent River Naval Air Station

Weather History for KNHK - March, 2012

Change the Weather History Date:

Monday, March 12, 2012

  Actual Average Record
Temperature  
Mean Temperature 58 °F -  
Max Temperature 70 °F 53 °F 79 °F (2006)
Min Temperature 45 °F 36 °F 21 °F (1998)
Degree Days  
Heating Degree Days 8    
Growing Degree Days 8 (Base 50)    
Moisture  
Dew Point 39 °F    
Average Humidity 53    
Maximum Humidity 69    
Minimum Humidity 38    
Precipitation  
Precipitation 0.00 in - - ()
Sea Level Pressure  
Sea Level Pressure 30.29 in    
Wind  
Wind Speed 6 mph (South)    
Max Wind Speed 13 mph    
Max Gust Speed 22 mph    
Visibility 10 miles    
Events      
Averages and records for this station are not official NWS values.
T = Trace of Precipitation, MM = Missing Value Source: NWS Daily Summary

Daily Weather History Graph

Daily Weather History Graph

Search for Another Location

Airport or City:

Trip Planner

Search our weather history database for the weather conditions in past years. The results will help you decide how hot, cold, wet, or windy it might be!

Date:

Astronomy

Mar. 12, 2012 Rise Set
Actual Time 7:20 AM EDT 7:10 PM EDT
Civil Twilight 6:54 AM EDT 7:36 PM EDT
Nautical Twilight 6:23 AM EDT 8:07 PM EDT
Astronomical Twilight 5:52 AM EDT 8:38 PM EDT
Moon No Moon Rise 9:45 AM EDT (3/12)
Length of Visible Light 12h 42m
Length of Day
11h 49m
Waning Gibbous, 76% of the Moon is Illuminated
Mar 12
Waning Gibbous
Mar 14
Last Quarter
Mar 22
New
Mar 30
First Quarter
Apr 6
Full

Hourly Weather History & Observations

Time (EDT) Temp. Windchill Dew Point Humidity Pressure Visibility Wind Dir Wind Speed Gust Speed Precip Events Conditions
12:52 AM 46.9 °F - 33.1 °F 59% 30.42 in 10.0 mi South 4.6 mph - N/A   Clear
1:52 AM 48.0 °F - 34.0 °F 58% 30.40 in 10.0 mi SSE 6.9 mph - N/A   Clear
2:52 AM 46.9 °F - 33.1 °F 59% 30.38 in 10.0 mi South 5.8 mph - N/A   Clear
3:52 AM 46.0 °F 43.9 °F 32.0 °F 58% 30.36 in 10.0 mi South 4.6 mph - N/A   Clear
4:52 AM 46.0 °F 43.9 °F 30.0 °F 54% 30.36 in 10.0 mi South 4.6 mph - N/A   Clear
5:52 AM 46.0 °F 44.8 °F 28.9 °F 51% 30.37 in 10.0 mi South 3.5 mph - N/A   Clear
6:09 AM 46.4 °F - 28.4 °F 50% 30.36 in 10.0 mi Calm Calm - N/A   Partly Cloudy
6:52 AM 45.0 °F 43.5 °F 28.9 °F 53% 30.37 in 10.0 mi South 3.5 mph - N/A   Scattered Clouds
7:52 AM 46.9 °F - 28.9 °F 50% 30.37 in 10.0 mi SSW 4.6 mph - N/A   Scattered Clouds
8:52 AM 51.1 °F - 32.0 °F 48% 30.36 in 10.0 mi SSW 9.2 mph - N/A   Mostly Cloudy
9:52 AM 53.1 °F - 32.0 °F 45% 30.36 in 10.0 mi SSW 10.4 mph - N/A   Scattered Clouds
10:52 AM 61.0 °F - 35.1 °F 38% 30.36 in 10.0 mi South 8.1 mph - N/A   Scattered Clouds
11:52 AM 64.9 °F - 39.9 °F 40% 30.34 in 10.0 mi SSW 12.7 mph - N/A   Partly Cloudy
12:52 PM 66.9 °F - 41.0 °F 39% 30.32 in 10.0 mi South 12.7 mph 21.9 mph N/A   Scattered Clouds
1:52 PM 70.0 °F - 44.1 °F 39% 30.28 in 10.0 mi South 10.4 mph - N/A   Scattered Clouds
2:52 PM 61.0 °F - 46.0 °F 58% 30.24 in 10.0 mi ESE 10.4 mph - N/A   Mostly Cloudy
3:52 PM 62.1 °F - 46.9 °F 58% 30.22 in 10.0 mi ESE 12.7 mph - N/A   Mostly Cloudy
4:52 PM 62.1 °F - 46.0 °F 56% 30.20 in 10.0 mi ESE 9.2 mph - N/A   Mostly Cloudy
5:52 PM 60.1 °F - 46.0 °F 60% 30.19 in 10.0 mi ESE 8.1 mph - N/A   Mostly Cloudy
6:52 PM 55.9 °F - 46.0 °F 69% 30.19 in 10.0 mi ESE 5.8 mph - N/A   Mostly Cloudy
7:52 PM 57.0 °F - 46.9 °F 69% 30.19 in 10.0 mi SE 3.5 mph - N/A   Mostly Cloudy
8:52 PM 60.1 °F - 46.9 °F 62% 30.19 in 10.0 mi Variable 3.5 mph - N/A   Mostly Cloudy
9:52 PM 64.9 °F - 48.0 °F 54% 30.18 in 10.0 mi South 5.8 mph - N/A   Overcast
10:52 PM 64.9 °F - 46.9 °F 52% 30.17 in 10.0 mi South 5.8 mph - N/A   Overcast
11:52 PM 64.0 °F - 46.9 °F 54% 30.17 in 10.0 mi South 6.9 mph - N/A   Overcast